Location: Be?i?
(36.9044°N, 30.1006°E)
Time: 11:46:37
(UTC+00:00)

SPOT 3 Rocket - Pass Details

Date: 05 August 2024
Orbit: 775 x 793 km, 98.6° (Epoch: 08 September)

Event Time Altitude Azimuth Distance (km) Brightness Sun altitude
Exits shadow 19:40:44 80° 201° (SSW) 808 3.4 -26.5°
Maximum altitude 19:41:00 84° 257° (WSW) 801 3.5 -26.5°
Drops below altitude 10° 19:46:14 10° 346° (NNW) 2,363 6.9 -27.2°
Sets 19:48:34 0° 347° (NNW) 3,295 7.8 -27.5°
